Miscellaneous Local Product
Issued by NWS Hastings, NE

Home | Current Version | Previous Version | Text Only | Print | Product List | Glossary Off
Versions: 1 2 3 4 5 6 7 8 9 10 11 12 13 14 15 16 17 18 19 20 21 22 23 24 25 26 27 28 29 30 31 32 33 34 35 36 37 38 39 40 41 42 43 44 45 46 47 48 49 50

000
AXUS43 KGID 200002
MISGRI

GID CWA HOURLY WEATHER ROUNDUP
NATIONAL WEATHER SERVICE HASTINGS NE
600 PM CST THU JAN 19 2017

NOTE: "FAIR" INDICATES FEW OR NO CLOUDS BELOW 12,000 FEET WITH NO
SIGNIFICANT WEATHER AND/OR OBSTRUCTIONS TO VISIBILITY.

...SOUTH CENTRAL NEBRASKA...

CITY           SKY/WX    TMP DP  RH WIND       PRES   REMARKS
GRAND ISLAND   CLOUDY    40  40 100 S3        29.62S
HASTINGS       FOG       41  40  96 CALM      29.62R VSB 1
KEARNEY        CLOUDY    39  37  93 S3        29.60F VSB 3/4
ORD            CLOUDY    40  38  93 SE6       29.57F FOG
YORK           CLEAR     39  39 100 CALM      29.63S FOG
AURORA         CLOUDY    40  40 100 CALM      29.62R FOG
LEXINGTON      CLOUDY    41  39  94 SE5       29.57F FOG
HOLDREGE       CLOUDY    40  39  97 S3        29.60R FOG
HEBRON         FOG       41  41  99 CALM      29.63S VSB 3/4

...NEBRASKA PANHANDLE...

CITY           SKY/WX    TMP DP  RH WIND       PRES   REMARKS
CHADRON        CLEAR     35  27  72 W7        29.49R WCI  29
ALLIANCE       CLEAR     41  24  51 SW5       29.48S
SCOTTSBLUFF    CLEAR     43  24  47 NW7       29.50R
SIDNEY         CLEAR     36  26  67 S8        29.51R WCI  30

...WESTERN AND NORTH CENTRAL NEBRASKA...

CITY           SKY/WX    TMP DP  RH WIND       PRES   REMARKS
VALENTINE      CLEAR     41  30  65 S15       29.48R
AINSWORTH      CLOUDY    38  37  97 S15       29.50F WCI  29
ONEILL         CLOUDY    41  41  99 S10       29.56F FOG
BROKEN BOW     CLOUDY    41  38  89 S9        29.55F
IMPERIAL       FOG       35  34  96 SE10      29.54S VSB 1/4 WCI  27
NORTH PLATTE   CLOUDY    38  37  97 S8        29.55F WCI  32
MCCOOK         CLOUDY    36  36 100 CALM      29.56F FOG

...EASTERN NEBRASKA...

CITY           SKY/WX    TMP DP  RH WIND       PRES   REMARKS
NORFOLK        CLOUDY    39  38  96 S7        29.62S FOG     WCI  34
SO SIOUX CITY  FOG       40  39  97 SE6       29.66R VSB 1/4
TEKAMAH        FOG       37  36  96 CALM      29.66R VSB 1/2
COLUMBUS       CLOUDY    39  39 100 S3        29.65R
ALBION         FOG      N/A N/A N/A SE7       29.61F VSB 1/2
OMAHA EPPLEY   CLOUDY    41  37  86 SE3       29.66S FOG
MILLARD        FOG       43  42  97 CALM      29.66S VSB 3/4
LINCOLN        CLOUDY    41  41 100 SE3       29.66S FOG
NEBRASKA CITY  FOG       41  41 100 CALM      29.66R VSB 1/4
BEATRICE       FOG       41  41 100 NE3       29.64S VSB 1/2
FALLS CITY     CLOUDY    43  42  97 CALM      29.64F FOG

...NORTHERN KANSAS...

CITY           SKY/WX    TMP DP  RH WIND       PRES   REMARKS
GOODLAND       CLOUDY    36  35  96 SE7       29.53S WCI  30
HILL CITY      MOCLDY    43  41  93 E7        29.58S
NORTON         CLOUDY    39  36  87 E6        29.57F WCI  35
PHILLIPSBURG   CLOUDY    43  43 100 NE3       29.60S FOG
SMITH CENTER   FOG       39  39 100 E3        29.61S VSB 1/2
HAYS           CLOUDY    44  42  93 NE5       29.59S
RUSSELL        CLOUDY    44  44 100 SE5       29.58S FOG
CONCORDIA      FOG       43  43 100 E5        29.62S VSB 3/4
SALINA         CLOUDY    46  45  96 E6        29.62S
TOPEKA         CLOUDY    47  44  90 SE6       29.64S



USA.gov is the U.S. government's official web portal to all federal, state and local government web resources and services.